Location: ????????
(55.6333°N, 37.7000°E)
Time: 13:32:36
(UTC+00:00)

H-2A R/B - Pass Details

Date: 19 May 2025
Orbit: 555 x 622 km, 98.4° (Epoch: 20 June)

Event Time Altitude Azimuth Distance (km) Brightness Sun altitude
Rises 23:22:42 0° 18° (NNE) 2,840 7.4 -10.4°
Reaches altitude 10° 23:24:55 10° 21° (NNE) 1,922 6.2 -10.3°
Maximum altitude 23:29:02 62° 103° (ESE) 655 2.3 -10.0°
Enters shadow 23:32:57 11° 185° (S) 1,827 3.9 -9.7°
